| time (UTC) | temp F | wind direction | speed MPH | gust MPH | rain 1hr in | rain 24hr in | rain mn in | humidity % | barometer mb |
| 20260505081604 | 51 | 194 | 0.0 | 6.0 | 0.00 | 0.11 | 0.05 | 95 | 1000.2 |
| 20260505080113 | 50 | 94 | 1.0 | 7.0 | 0.00 | 0.11 | 0.05 | 93 | 1000.3 |
| 20260505074559 | 50 | 178 | 0.0 | 1.0 | 0.00 | 0.11 | 0.05 | 92 | 1000.5 |
| 20260505073055 | 51 | 178 | 0.0 | 2.0 | 0.00 | 0.11 | 0.05 | 91 | 1000.6 |
| 20260505071557 | 51 | 178 | 1.0 | 4.0 | 0.00 | 0.11 | 0.05 | 91 | 1000.6 |
| 20260505070050 | 52 | 180 | 1.0 | 5.0 | 0.00 | 0.11 | 0.05 | 92 | 1001.0 |
| 20260505064545 | 53 | 180 | 1.0 | 3.0 | 0.00 | 0.11 | 0.05 | 93 | 1001.1 |
| 20260505063056 | 54 | 172 | 1.0 | 6.0 | 0.03 | 0.11 | 0.05 | 93 | 1001.7 |
| 20260505061640 | 54 | 211 | 0.0 | 6.0 | 0.05 | 0.11 | 0.05 | 93 | 1002.1 |
| 20260505060038 | 54 | 254 | 2.0 | 8.0 | 0.05 | 0.11 | 0.05 | 92 | 1002.0 |
| 20260505054537 | 54 | 275 | 2.0 | 10.0 | 0.05 | 0.11 | 0.05 | 91 | 1002.0 |
| 20260505053040 | 55 | 190 | 3.0 | 16.0 | 0.02 | 0.08 | 0.02 | 87 | 1002.5 |
| 20260505051552 | 58 | 240 | 7.0 | 19.0 | 0.00 | 0.06 | 0.00 | 81 | 1002.7 |
| 20260505041516 | 60 | 206 | 5.0 | 14.0 | 0.02 | 0.06 | 0.00 | 76 | 1002.0 |
| 20260505040014 | 59 | 209 | 9.0 | 21.0 | 0.02 | 0.06 | 0.00 | 81 | 1001.9 |
| 20260505034514 | 59 | 175 | 5.0 | 18.0 | 0.02 | 0.06 | 0.06 | 82 | 1001.7 |
| 20260505033010 | 58 | 147 | 4.0 | 9.0 | 0.00 | 0.04 | 0.04 | 81 | 1001.6 |
| 20260505031507 | 56 | 185 | 4.0 | 10.0 | 0.00 | 0.04 | 0.04 | 83 | 1001.7 |
| 20260505030007 | 55 | 94 | 3.0 | 7.0 | 0.00 | 0.04 | 0.04 | 83 | 1001.8 |
| 20260505024509 | 55 | 175 | 5.0 | 12.0 | 0.03 | 0.04 | 0.04 | 84 | 1002.0 |
| 20260505023005 | 54 | 246 | 1.0 | 6.0 | 0.04 | 0.04 | 0.04 | 88 | 1002.2 |
| 20260505021504 | 54 | 190 | 1.0 | 5.0 | 0.04 | 0.04 | 0.04 | 88 | 1002.3 |
| 20260505020006 | 54 | 196 | 2.0 | 9.0 | 0.04 | 0.04 | 0.04 | 85 | 1002.4 |
| 20260505014500 | 54 | 239 | 1.0 | 3.0 | 0.01 | 0.01 | 0.01 | 74 | 1002.8 |
| 20260505013107 | 55 | 147 | 0.0 | 2.0 | 0.00 | 0.00 | 0.00 | 69 | 1002.1 |
| 20260505011601 | 56 | 147 | 0.0 | 2.0 | 0.00 | 0.00 | 0.00 | 65 | 1002.0 |
| 20260505010111 | 57 | 147 | 0.0 | 5.0 | 0.00 | 0.00 | 0.00 | 64 | 1001.9 |
| 20260505004556 | 59 | 169 | 1.0 | 4.0 | 0.00 | 0.00 | 0.00 | 60 | 1002.0 |
| 20260505003057 | 61 | 149 | 2.0 | 8.0 | 0.00 | 0.00 | 0.00 | 56 | 1001.8 |
| 20260505001600 | 62 | 199 | 4.0 | 10.0 | 0.00 | 0.00 | 0.00 | 50 | 1001.9 |
| 20260505000054 | 63 | 294 | 2.0 | 5.0 | 0.00 | 0.00 | 0.00 | 49 | 1002.0 |
| 20260504234549 | 64 | 236 | 5.0 | 12.0 | 0.00 | 0.00 | 0.00 | 47 | 1002.1 |
| 20260504233104 | 65 | 254 | 2.0 | 9.0 | 0.00 | 0.00 | 0.00 | 45 | 1002.2 |
| 20260504231549 | 66 | 236 | 4.0 | 8.0 | 0.00 | 0.00 | 0.00 | 45 | 1002.2 |
| 20260504230054 | 67 | 243 | 6.0 | 15.0 | 0.00 | 0.00 | 0.00 | 43 | 1002.2 |
| 20260504224550 | 67 | 244 | 3.0 | 11.0 | 0.00 | 0.00 | 0.00 | 46 | 1002.3 |
| 20260504223046 | 67 | 242 | 4.0 | 16.0 | 0.00 | 0.00 | 0.00 | 47 | 1002.4 |
| 20260504221545 | 68 | 256 | 3.0 | 12.0 | 0.00 | 0.00 | 0.00 | 48 | 1002.2 |
| 20260504220044 | 68 | 252 | 4.0 | 11.0 | 0.00 | 0.00 | 0.00 | 46 | 1002.2 |
| 20260504214548 | 70 | 246 | 5.0 | 12.0 | 0.00 | 0.00 | 0.00 | 44 | 1002.3 |
| 20260504213043 | 70 | 245 | 4.0 | 15.0 | 0.00 | 0.00 | 0.00 | 40 | 1002.2 |
| 20260504211541 | 69 | 264 | 6.0 | 17.0 | 0.00 | 0.00 | 0.00 | 41 | 1002.2 |
| 20260504210044 | 68 | 246 | 2.0 | 12.0 | 0.00 | 0.00 | 0.00 | 48 | 1002.3 |
| 20260504204546 | 69 | 229 | 4.0 | 14.0 | 0.00 | 0.00 | 0.00 | 46 | 1002.5 |
| 20260504203051 | 69 | 226 | 4.0 | 12.0 | 0.00 | 0.00 | 0.00 | 47 | 1002.8 |
| 20260504201533 | 70 | 206 | 7.0 | 12.0 | 0.00 | 0.00 | 0.00 | 46 | 1002.9 |
| 20260504200032 | 71 | 156 | 5.0 | 10.0 | 0.00 | 0.00 | 0.00 | 46 | 1003.0 |
| 20260504194534 | 71 | 169 | 5.0 | 13.0 | 0.00 | 0.00 | 0.00 | 46 | 1003.2 |
| 20260504193029 | 71 | 179 | 3.0 | 15.0 | 0.00 | 0.00 | 0.00 | 46 | 1003.4 |
| 20260504191527 | 70 | 240 | 4.0 | 13.0 | 0.00 | 0.00 | 0.00 | 46 | 1003.7 |
| 20260504190023 | 70 | 194 | 5.0 | 17.0 | 0.00 | 0.00 | 0.00 | 47 | 1003.9 |
| 20260504184521 | 69 | 238 | 7.0 | 17.0 | 0.00 | 0.00 | 0.00 | 48 | 1004.0 |
| 20260504183017 | 68 | 247 | 5.0 | 16.0 | 0.00 | 0.00 | 0.00 | 51 | 1004.2 |
| 20260504181514 | 68 | 234 | 9.0 | 18.0 | 0.00 | 0.00 | 0.00 | 48 | 1004.5 |
| 20260504180011 | 67 | 229 | 7.0 | 19.0 | 0.00 | 0.00 | 0.00 | 51 | 1004.7 |
| 20260504174508 | 67 | 230 | 6.0 | 14.0 | 0.00 | 0.00 | 0.00 | 52 | 1005.0 |
| 20260504173008 | 66 | 204 | 4.0 | 16.0 | 0.00 | 0.00 | 0.00 | 53 | 1005.1 |
| 20260504171503 | 66 | 255 | 4.0 | 16.0 | 0.00 | 0.00 | 0.00 | 55 | 1005.3 |